Location: Asheville, NC
(35.6000°N, 82.5500°W)
Time: 15:00:54
(UTC-05:00)

STARS - Pass Details

Date: 12 January 2018
Orbit: 625 x 641 km, 98.3° (Epoch: 17 January)

Event Time Altitude Azimuth Distance (km) Brightness Sun altitude
Rises 06:47:08 0° 203° (SSW) 2,893 ? -10.7°
Reaches altitude 10° 06:49:56 10° 222° (SW) 1,990 ? -10.2°
Maximum altitude 06:52:53 18° 265° (W) 1,539 ? -9.6°
Enters shadow 06:55:47 10° 308° (NW) 1,979 ? -9.1°
